Flag Weather past 2 weeks in Varanasi, Uttar Pradesh, India

Now
75 °F

Haze.


Feels Like: 78 °F
Forecast: 60 / 84 °F
Wind: No wind

Location: Lucknow / Amausi

Current Time: Nov 29, 2014 at 11:17:43 AM

Latest Report: Nov 29, 2014 at 10:30 AM


Visibility: 1 mi

Pressure: 29.98 "Hg

Humidity: 54%

Dew point: 57 °F

Location of VaranasiLocation

Historic Weather in Varanasi — Graph

°F

Varanasi temperature yesterday

Maximum temperature yesterday: 81 °F (at 3:00 PM)
Minimum temperature yesterday: 52 °F (at 5:30 AM)
Average temperature yesterday: 65 °F

Past Weeks' High & Low Weather Summary

 TemperatureHumidityPressure
High82 °F (Nov 14, 2:30 PM)100% (Nov 28, 5:30 AM)30.80 "Hg (Nov 28, 5:30 AM)
Low48 °F (Nov 25, 6:00 AM)24% (Nov 15, 2:30 PM)29.77 "Hg (Nov 26, 3:30 PM)
Average67 °F59%29.94 "Hg
* Reported Nov 14 5:00 AM — Nov 29 5:00 AM, Varanasi, Weather by CustomWeather, © 2014

Note: Actual official high and low records may vary slightly from our data, if they occured in-between our weather recording intervals... More about our weather records

Advertising

Varanasi weather history for previous 24 hours

 ConditionsComfort  
Time TempWeatherWind HumidityBarometerVisibility
5:00 AM
Nov 29
55 °FFog.No wind94%29.89 "Hg1 mi
3:00 AM55 °FFog.No wind94%29.86 "Hg1 mi
11:00 PM
Nov 28
59 °FHaze.No wind88%29.89 "Hg1 mi
9:00 PM61 °FHaze.No wind83%29.89 "Hg1 mi
8:30 PM61 °FHaze.No wind83%29.89 "Hg1 mi
8:00 PM64 °FHaze.No wind78%29.89 "Hg1 mi
7:30 PM64 °FHaze.No wind78%29.89 "Hg2 mi
7:00 PM66 °FHaze.No wind73%29.89 "Hg2 mi
6:30 PM66 °FHaze.No wind73%29.89 "Hg2 mi
6:00 PM70 °FHaze.No wind73%29.86 "Hg2 mi
5:30 PM72 °FHaze.No wind65%29.86 "Hg2 mi
4:30 PM79 °FHaze.2 mph39%29.86 "Hg2 mi
4:00 PM81 °FHaze.2 mph37%29.86 "Hg2 mi
3:30 PM81 °FHaze.2 mph37%29.86 "Hg2 mi
3:00 PM81 °FHaze.2 mph37%29.86 "Hg2 mi
1:30 PM79 °FHaze.2 mph39%29.89 "Hg2 mi
1:00 PM79 °FHaze.2 mph39%29.92 "Hg2 mi
12:30 PM77 °FHaze.2 mph42%29.92 "Hg2 mi
11:30 AM73 °FFog.2 mph47%29.95 "Hg1 mi
11:00 AM68 °FFog.2 mph53%29.95 "Hg1 mi
Weather by CustomWeather, © 2014

See weather overviewHow to use our weather pages